Flag for Liberia Weather past 2 weeks in Gbarnga, Liberia

Now
79 °F

Clear.


Feels Like: 83 °F
Forecast: N/A
Wind: No wind

Location: Roberts Field

Current Time: Feb 1, 2015 at 11:31:44 PM

Latest Report: Feb 1, 2015 at 11:00 PM


Visibility: 5 mi

Pressure: 29.86 "Hg

Humidity: 94%

Dew point: 77 °F

Location of GbarngaLocation

Historic Weather in Gbarnga — Graph

°F

Gbarnga temperature yesterday

Maximum temperature yesterday: 104 °F (at 6:00 AM)
Minimum temperature yesterday: 75 °F (at 1:00 AM)
Average temperature yesterday: 81 °F

Past Weeks' High & Low Weather Summary

 TemperatureHumidityPressure
High104 °F (Jan 31, 6:00 AM)100% (Jan 18, 3:30 AM)29.98 "Hg (Jan 18, 3:30 AM)
Low50 °F (Jan 19, 4:30 AM)10% (Jan 31, 6:30 AM)29.56 "Hg (Jan 28, 6:30 PM)
Average81 °F82%29.88 "Hg
* Reported Jan 17 10:00 PM — Feb 1 10:30 PM, Gbarnga, Weather by CustomWeather, © 2014

Note: Actual official high and low records may vary slightly from our data, if they occured in-between our weather recording intervals... More about our weather records

Advertising

Gbarnga weather history for previous 24 hours

 ConditionsComfort  
Time TempWeatherWind HumidityBarometerVisibility
10:30 PM
Feb 1
79 °FClear.No wind89%29.86 "Hg5 mi
10:00 PM79 °FClear.No wind89%29.86 "Hg5 mi
9:30 PM81 °FClear.No wind84%29.86 "Hg5 mi
9:00 PM81 °FPassing clouds.No wind84%29.86 "Hg5 mi
8:30 PM81 °FPassing clouds.No wind84%29.83 "Hg5 mi
8:00 PM81 °FPassing clouds.No wind84%29.83 "Hg5 mi
7:30 PM81 °FPartly sunny.No wind84%29.83 "Hg5 mi
7:00 PM82 °FPartly sunny.No wind79%29.83 "HgN/A
6:30 PM82 °FPassing clouds.6 mph79%29.80 "HgN/A
6:00 PM86 °FPassing clouds.6 mph70%29.80 "HgN/A
5:30 PM86 °FPassing clouds.12 mph70%29.80 "HgN/A
5:00 PM90 °FPassing clouds.12 mph63%29.80 "HgN/A
4:30 PM90 °FPassing clouds.12 mph63%29.77 "HgN/A
4:00 PM90 °FScattered clouds.No wind63%29.77 "HgN/A
3:30 PM91 °FScattered clouds.No wind59%29.77 "HgN/A
3:00 PM91 °FScattered clouds.12 mph59%29.80 "HgN/A
2:30 PM91 °FScattered clouds.10 mph59%29.80 "HgN/A
2:00 PM91 °FPartly sunny.12 mph59%29.83 "HgN/A
1:30 PM91 °FPartly sunny.No wind59%29.83 "HgN/A
1:00 PM90 °FScattered clouds.8 mph59%29.86 "HgN/A
12:30 PM90 °FScattered clouds.8 mph59%29.86 "Hg6 mi
12:00 PM90 °FScattered clouds.9 mph59%29.89 "Hg6 mi
11:30 AM88 °FScattered clouds.7 mph62%29.89 "Hg6 mi
11:00 AM86 °FScattered clouds.No wind66%29.89 "Hg6 mi
10:30 AM84 °FPassing clouds.No wind70%29.92 "Hg6 mi
10:00 AM84 °FPassing clouds.No wind74%29.92 "Hg6 mi
9:30 AM81 °FPartly sunny.No wind79%29.92 "Hg5 mi
9:00 AM79 °FPartly sunny.No wind89%29.92 "Hg5 mi
8:30 AM77 °FPartly sunny.No wind94%29.92 "Hg4 mi
8:00 AM77 °FFog.No wind94%29.89 "Hg3 mi
7:30 AM75 °FFog.No wind94%29.89 "Hg3 mi
7:00 AM75 °FFog.No wind94%29.89 "Hg2 mi
6:30 AM75 °FFog.No wind94%29.86 "Hg3 mi
6:00 AM75 °FFog.No wind94%29.86 "Hg2 mi
5:30 AM77 °FPassing clouds.No wind94%29.86 "Hg4 mi
5:00 AM77 °FPassing clouds.No wind94%29.86 "Hg4 mi
4:30 AM77 °FPassing clouds.No wind94%29.86 "Hg4 mi
4:00 AM77 °FFog.No wind94%29.86 "Hg3 mi
12:00 AM77 °FPassing clouds.No wind94%29.92 "Hg4 mi
11:30 PM
Jan 31
77 °FPassing clouds.No wind94%29.92 "Hg6 mi
11:00 PM77 °FPassing clouds.No wind94%29.92 "Hg6 mi
Weather by CustomWeather, © 2014

See weather overviewHow to use our weather pages